• In Belarus
  • List of Countries
  • For 7 days
  • Water Temperature
  • Satellite Maps
  • Weather Map
  • Weather Widgets
  • user-avatar
    Login

    Hourly Weather Lubango

    Today, 26 July, Wednesday

    Time Temperature Precipitation Wind Pressure Humidity
    00:00 +12°C° 0 mm 1 mps 609 mmHg 50%
    01:00 +11°C° 0 mm 1 mps 609 mmHg 48%
    02:00 +11°C° 0 mm 1 mps 609 mmHg 47%
    03:00 +11°C° 0 mm 1 mps 609 mmHg 45%
    04:00 +11°C° 0 mm 1 mps 608 mmHg 43%
    05:00 +11°C° 0 mm 1 mps 608 mmHg 41%
    06:00 +11°C° 0 mm 1 mps 608 mmHg 38%
    07:00 +11°C° 0 mm 1 mps 609 mmHg 36%
    08:00 +15°C° 0 mm 2 mps 610 mmHg 29%
    09:00 +19°C° 0 mm 3 mps 612 mmHg 21%
    10:00 +24°C° 0 mm 3 mps 614 mmHg 14%
    11:00 +25°C° 0 mm 3 mps 614 mmHg 13%
    12:00 +26°C° 0 mm 3 mps 614 mmHg 12%
    13:00 +27°C° 0 mm 3 mps 614 mmHg 11%
    14:00 +27°C° 0 mm 2 mps 613 mmHg 12%
    15:00 +27°C° 0 mm 2 mps 613 mmHg 13%
    16:00 +26°C° 0 mm 2 mps 612 mmHg 14%
    17:00 +23°C° 0 mm 2 mps 611 mmHg 23%
    18:00 +19°C° 0 mm 1 mps 610 mmHg 32%
    19:00 +15°C° 0 mm 1 mps 609 mmHg 41%
    20:00 +14°C° 0 mm 1 mps 609 mmHg 45%
    21:00 +13°C° 0 mm 1 mps 609 mmHg 48%
    22:00 +12°C° 0 mm 1 mps 609 mmHg 52%
    23:00 +12°C° 0 mm 1 mps 609 mmHg 50%

    Tomorrow, 27 July, Thursday

    Time Temperature Precipitation Wind Pressure Humidity
    00:00 +12°C° 0 mm 1 mps 609 mmHg 48%
    01:00 +12°C° 0 mm 1 mps 609 mmHg 46%
    02:00 +12°C° 0 mm 1 mps 609 mmHg 44%
    03:00 +11°C° 0 mm 1 mps 608 mmHg 42%
    04:00 +11°C° 0 mm 1 mps 608 mmHg 40%
    05:00 +11°C° 0 mm 1 mps 608 mmHg 37%
    06:00 +10°C° 0 mm 2 mps 609 mmHg 34%
    07:00 +10°C° 0 mm 2 mps 609 mmHg 31%
    08:00 +15°C° 0 mm 2 mps 611 mmHg 26%
    09:00 +19°C° 0 mm 3 mps 612 mmHg 20%
    10:00 +23°C° 0 mm 4 mps 614 mmHg 14%
    11:00 +25°C° 0 mm 4 mps 614 mmHg 13%
    12:00 +27°C° 0 mm 3 mps 614 mmHg 12%
    13:00 +28°C° 0 mm 3 mps 614 mmHg 11%
    14:00 +28°C° 0 mm 3 mps 613 mmHg 11%
    15:00 +28°C° 0 mm 2 mps 613 mmHg 11%
    16:00 +28°C° 0 mm 2 mps 612 mmHg 11%
    17:00 +24°C° 0 mm 2 mps 611 mmHg 18%
    18:00 +21°C° 0 mm 1 mps 610 mmHg 25%
    19:00 +16°C° 0 mm 1 mps 610 mmHg 32%
    20:00 +15°C° 0 mm 1 mps 610 mmHg 35%
    21:00 +14°C° 0 mm 1 mps 610 mmHg 39%
    22:00 +13°C° 0 mm 1 mps 610 mmHg 42%
    23:00 +13°C° 0 mm 1 mps 610 mmHg 41%

    Day after tomorrow, 28 July, Friday

    Time Temperature Precipitation Wind Pressure Humidity
    00:00 +13°C° 0 mm 1 mps 609 mmHg 41%
    01:00 +13°C° 0 mm 1 mps 609 mmHg 40%
    02:00 +13°C° 0 mm 1 mps 609 mmHg 38%
    03:00 +12°C° 0 mm 1 mps 609 mmHg 37%
    04:00 +12°C° 0 mm 1 mps 608 mmHg 35%
    05:00 +12°C° 0 mm 2 mps 609 mmHg 33%
    06:00 +12°C° 0 mm 2 mps 609 mmHg 32%
    07:00 +12°C° 0 mm 2 mps 609 mmHg 30%
    08:00 +16°C° 0 mm 3 mps 611 mmHg 25%
    09:00 +20°C° 0 mm 3 mps 612 mmHg 19%
    10:00 +23°C° 0 mm 4 mps 614 mmHg 14%
    11:00 +26°C° 0 mm 4 mps 614 mmHg 13%
    12:00 +27°C° 0 mm 4 mps 614 mmHg 12%
    13:00 +29°C° 0 mm 3 mps 614 mmHg 11%
    14:00 +29°C° 0 mm 3 mps 613 mmHg 11%
    15:00 +28°C° 0 mm 3 mps 613 mmHg 11%
    16:00 +28°C° 0 mm 3 mps 612 mmHg 11%
    17:00 +25°C° 0 mm 2 mps 611 mmHg 16%
    18:00 +21°C° 0 mm 2 mps 610 mmHg 21%
    19:00 +18°C° 0 mm 1 mps 610 mmHg 26%
    20:00 +16°C° 0 mm 1 mps 610 mmHg 28%
    21:00 +15°C° 0 mm 1 mps 610 mmHg 30%
    22:00 +15°C° 0 mm 1 mps 610 mmHg 31%
    23:00 +14°C° 0 mm 1 mps 610 mmHg 30%

    29 July, Saturday

    Time Temperature Precipitation Wind Pressure Humidity
    00:00 +14°C° 0 mm 1 mps 610 mmHg 28%
    01:00 +14°C° 0 mm 1 mps 609 mmHg 26%
    02:00 +13°C° 0 mm 2 mps 609 mmHg 26%
    03:00 +13°C° 0 mm 2 mps 609 mmHg 26%
    04:00 +13°C° 0 mm 2 mps 609 mmHg 26%
    05:00 +13°C° 0 mm 2 mps 609 mmHg 27%
    06:00 +13°C° 0 mm 2 mps 609 mmHg 29%
    07:00 +12°C° 0 mm 3 mps 610 mmHg 30%
    08:00 +16°C° 0 mm 3 mps 611 mmHg 26%
    09:00 +20°C° 0 mm 4 mps 613 mmHg 21%
    10:00 +23°C° 0 mm 4 mps 614 mmHg 17%
    11:00 +26°C° 0 mm 4 mps 614 mmHg 15%
    12:00 +27°C° 0 mm 3 mps 614 mmHg 14%
    13:00 +29°C° 0 mm 3 mps 614 mmHg 12%
    14:00 +28°C° 0 mm 3 mps 613 mmHg 12%
    15:00 +28°C° 0 mm 3 mps 613 mmHg 11%
    16:00 +28°C° 0 mm 3 mps 613 mmHg 11%
    17:00 +25°C° 0 mm 2 mps 612 mmHg 16%
    18:00 +20°C° 0 mm 2 mps 611 mmHg 21%
    19:00 +18°C° 0 mm 1 mps 610 mmHg 26%
    20:00 +16°C° 0 mm 1 mps 610 mmHg 28%
    21:00 +15°C° 0 mm 1 mps 610 mmHg 30%
    22:00 +14°C° 0 mm 1 mps 610 mmHg 32%
    23:00 +14°C° 0 mm 2 mps 610 mmHg 30%

    30 July, Sunday

    Time Temperature Precipitation Wind Pressure Humidity
    00:00 +13°C° 0 mm 2 mps 610 mmHg 29%
    01:00 +13°C° 0 mm 2 mps 609 mmHg 28%
    02:00 +12°C° 0 mm 2 mps 609 mmHg 28%
    03:00 +12°C° 0 mm 2 mps 609 mmHg 28%
    04:00 +12°C° 0 mm 2 mps 609 mmHg 28%
    05:00 +12°C° 0 mm 2 mps 609 mmHg 29%
    06:00 +12°C° 0 mm 2 mps 609 mmHg 30%
    07:00 +12°C° 0 mm 2 mps 610 mmHg 30%
    08:00 +14°C° 0 mm 3 mps 611 mmHg 26%
    09:00 +19°C° 0 mm 3 mps 612 mmHg 22%
    10:00 +23°C° 0 mm 4 mps 614 mmHg 18%
    11:00 +25°C° 0 mm 3 mps 614 mmHg 16%
    12:00 +27°C° 0 mm 2 mps 613 mmHg 14%
    13:00 +28°C° 0 mm 2 mps 613 mmHg 12%
    14:00 +28°C° 0 mm 2 mps 613 mmHg 12%
    15:00 +28°C° 0 mm 2 mps 613 mmHg 12%
    16:00 +28°C° 0 mm 2 mps 612 mmHg 12%
    17:00 +25°C° 0 mm 2 mps 611 mmHg 17%
    18:00 +21°C° 0 mm 1 mps 610 mmHg 23%
    19:00 +18°C° 0 mm 1 mps 610 mmHg 29%
    20:00 +16°C° 0 mm 1 mps 610 mmHg 33%
    21:00 +15°C° 0 mm 1 mps 609 mmHg 38%
    22:00 +14°C° 0 mm 1 mps 609 mmHg 42%
    23:00 +13°C° 0 mm 1 mps 609 mmHg 42%

    31 July, Monday

    Time Temperature Precipitation Wind Pressure Humidity
    00:00 +13°C° 0 mm 1 mps 609 mmHg 42%
    01:00 +13°C° 0 mm 1 mps 609 mmHg 42%
    02:00 +12°C° 0 mm 1 mps 608 mmHg 40%
    03:00 +12°C° 0 mm 1 mps 608 mmHg 39%
    04:00 +12°C° 0 mm 1 mps 608 mmHg 37%
    05:00 +12°C° 0 mm 1 mps 608 mmHg 37%
    06:00 +12°C° 0 mm 2 mps 609 mmHg 37%
    07:00 +12°C° 0 mm 2 mps 609 mmHg 37%
    08:00 +15°C° 0 mm 2 mps 611 mmHg 30%
    09:00 +19°C° 0 mm 3 mps 612 mmHg 24%
    10:00 +24°C° 0 mm 3 mps 614 mmHg 18%
    11:00 +26°C° 0 mm 3 mps 614 mmHg 16%
    12:00 +27°C° 0 mm 2 mps 614 mmHg 14%
    13:00 +29°C° 0 mm 2 mps 614 mmHg 12%
    14:00 +29°C° 0 mm 2 mps 613 mmHg 13%
    15:00 +28°C° 0 mm 2 mps 613 mmHg 14%
    16:00 +28°C° 0 mm 2 mps 612 mmHg 15%
    17:00 +24°C° 0 mm 2 mps 611 mmHg 23%
    18:00 +20°C° 0 mm 2 mps 611 mmHg 32%
    19:00 +16°C° 0 mm 1 mps 610 mmHg 41%
    20:00 +15°C° 0 mm 1 mps 610 mmHg 46%
    21:00 +14°C° 0 mm 1 mps 610 mmHg 51%
    22:00 +13°C° 0 mm 1 mps 610 mmHg 55%
    23:00 +13°C° 0 mm 1 mps 609 mmHg 53%
    Show more